Year,Month,Day,Hour,Minute,Value (Times are PST for temperature in C)
2010,08,14,00,00,20.80
2010,08,14,00,01,20.80
2010,08,14,00,02,20.80
2010,08,14,00,03,20.90
2010,08,14,00,04,20.90
2010,08,14,00,05,21.00
2010,08,14,00,06,21.00
2010,08,14,00,07,21.10
2010,08,14,00,08,21.20
2010,08,14,00,09,21.20
2010,08,14,00,10,21.20
2010,08,14,00,11,21.30
2010,08,14,00,12,21.30
2010,08,14,00,13,21.30
2010,08,14,00,14,21.30
2010,08,14,00,15,21.30
2010,08,14,00,16,21.30
2010,08,14,00,17,21.20
2010,08,14,00,18,21.20
2010,08,14,00,19,21.20
2010,08,14,00,20,21.10
2010,08,14,00,21,21.10
2010,08,14,00,22,21.10
2010,08,14,00,23,21.00
2010,08,14,00,24,21.00
2010,08,14,00,25,21.00
2010,08,14,00,26,20.90
2010,08,14,00,27,20.90
2010,08,14,00,28,20.90
2010,08,14,00,29,20.80
2010,08,14,00,30,20.80
2010,08,14,00,31,20.80
2010,08,14,00,32,20.90
2010,08,14,00,33,20.90
2010,08,14,00,34,20.90
2010,08,14,00,35,21.00
2010,08,14,00,36,21.00
2010,08,14,00,37,21.00
2010,08,14,00,38,21.10
2010,08,14,00,39,21.10
2010,08,14,00,40,21.20
2010,08,14,00,41,21.20
2010,08,14,00,42,21.20
2010,08,14,00,43,21.20
2010,08,14,00,44,21.20
2010,08,14,00,45,21.20
2010,08,14,00,46,21.20
2010,08,14,00,47,21.20
2010,08,14,00,48,21.20
2010,08,14,00,49,21.20
2010,08,14,00,50,21.20
2010,08,14,00,51,21.20
2010,08,14,00,52,21.10
2010,08,14,00,53,21.00
2010,08,14,00,54,21.00
2010,08,14,00,55,20.90
2010,08,14,00,56,20.90
2010,08,14,00,57,20.80
2010,08,14,00,58,20.70
2010,08,14,00,59,20.70
2010,08,14,01,00,20.70
2010,08,14,01,01,20.60
2010,08,14,01,02,20.60
2010,08,14,01,03,20.50
2010,08,14,01,04,20.50
2010,08,14,01,05,20.50
2010,08,14,01,06,20.40
2010,08,14,01,07,20.40
2010,08,14,01,08,20.30
2010,08,14,01,09,20.30
2010,08,14,01,10,20.30
2010,08,14,01,11,20.30
2010,08,14,01,12,20.30
2010,08,14,01,13,20.30
2010,08,14,01,14,20.30
2010,08,14,01,15,20.30
2010,08,14,01,16,20.40
2010,08,14,01,17,20.40
2010,08,14,01,18,20.50
2010,08,14,01,19,20.50
2010,08,14,01,20,20.50
2010,08,14,01,21,20.50
2010,08,14,01,22,20.60
2010,08,14,01,23,20.60
2010,08,14,01,24,20.60
2010,08,14,01,25,20.60
2010,08,14,01,26,20.60
2010,08,14,01,27,20.60
2010,08,14,01,28,20.60
2010,08,14,01,29,20.60
2010,08,14,01,30,20.70
2010,08,14,01,31,20.70
2010,08,14,01,32,20.70
2010,08,14,01,33,20.70
2010,08,14,01,34,20.70
2010,08,14,01,35,20.70
2010,08,14,01,36,20.70
2010,08,14,01,37,20.70
2010,08,14,01,38,20.70
2010,08,14,01,39,20.70
2010,08,14,01,40,20.60
2010,08,14,01,41,20.60
2010,08,14,01,42,20.60
2010,08,14,01,43,20.50
2010,08,14,01,44,20.50
2010,08,14,01,45,20.40
2010,08,14,01,46,20.40
2010,08,14,01,47,20.40
2010,08,14,01,48,20.40
2010,08,14,01,49,20.40
2010,08,14,01,50,20.40
2010,08,14,01,51,20.50
2010,08,14,01,52,20.40
2010,08,14,01,53,20.40
2010,08,14,01,54,20.40
2010,08,14,01,55,20.40
2010,08,14,01,56,20.40
2010,08,14,01,57,20.40
2010,08,14,01,58,20.40
2010,08,14,01,59,20.50
2010,08,14,02,00,20.50
2010,08,14,02,01,20.50
2010,08,14,02,02,20.50
2010,08,14,02,03,20.60
2010,08,14,02,04,20.60
2010,08,14,02,05,20.70
2010,08,14,02,06,20.70
2010,08,14,02,07,20.80
2010,08,14,02,08,20.80
2010,08,14,02,09,20.80
2010,08,14,02,10,20.80
2010,08,14,02,11,20.80
2010,08,14,02,12,20.80
2010,08,14,02,13,20.70
2010,08,14,02,14,20.70
2010,08,14,02,15,20.60
2010,08,14,02,16,20.50
2010,08,14,02,17,20.50
2010,08,14,02,18,20.40
2010,08,14,02,19,20.30
2010,08,14,02,20,20.30
2010,08,14,02,21,20.20
2010,08,14,02,22,20.20
2010,08,14,02,23,20.10
2010,08,14,02,24,20.10
2010,08,14,02,25,20.00
2010,08,14,02,26,20.00
2010,08,14,02,27,19.90
2010,08,14,02,28,19.90
2010,08,14,02,29,19.90
2010,08,14,02,30,19.80
2010,08,14,02,31,19.80
2010,08,14,02,32,19.70
2010,08,14,02,33,19.70
2010,08,14,02,34,19.70
2010,08,14,02,35,19.60
2010,08,14,02,36,19.60
2010,08,14,02,37,19.60
2010,08,14,02,38,19.50
2010,08,14,02,39,19.50
2010,08,14,02,40,19.50
2010,08,14,02,41,19.50
2010,08,14,02,42,19.40
2010,08,14,02,43,19.40
2010,08,14,02,44,19.40
2010,08,14,02,45,19.40
2010,08,14,02,46,19.40
2010,08,14,02,47,19.40
2010,08,14,02,48,19.30
2010,08,14,02,49,19.30
2010,08,14,02,50,19.30
2010,08,14,02,51,19.20
2010,08,14,02,52,19.20
2010,08,14,02,53,19.20
2010,08,14,02,54,19.20
2010,08,14,02,55,19.20
2010,08,14,02,56,19.20
2010,08,14,02,57,19.30
2010,08,14,02,58,19.30
2010,08,14,02,59,19.30
2010,08,14,03,00,19.30
2010,08,14,03,01,19.30
2010,08,14,03,02,19.40
2010,08,14,03,03,19.50
2010,08,14,03,04,19.50
2010,08,14,03,05,19.60
2010,08,14,03,06,19.70
2010,08,14,03,07,19.80
2010,08,14,03,08,19.90
2010,08,14,03,09,20.00
2010,08,14,03,10,20.10
2010,08,14,03,11,20.20
2010,08,14,03,12,20.30
2010,08,14,03,13,20.30
2010,08,14,03,14,20.30
2010,08,14,03,15,20.40
2010,08,14,03,16,20.40
2010,08,14,03,17,20.40
2010,08,14,03,18,20.30
2010,08,14,03,19,20.30
2010,08,14,03,20,20.30
2010,08,14,03,21,20.40
2010,08,14,03,22,20.40
2010,08,14,03,23,20.40
2010,08,14,03,24,20.40
2010,08,14,03,25,20.40
2010,08,14,03,26,20.50
2010,08,14,03,27,20.50
2010,08,14,03,28,20.50
2010,08,14,03,29,20.50
2010,08,14,03,30,20.40
2010,08,14,03,31,20.40
2010,08,14,03,32,20.40
2010,08,14,03,33,20.40
2010,08,14,03,34,20.30
2010,08,14,03,35,20.30
2010,08,14,03,36,20.30
2010,08,14,03,37,20.30
2010,08,14,03,38,20.30
2010,08,14,03,39,20.30
2010,08,14,03,40,20.30
2010,08,14,03,41,20.30
2010,08,14,03,42,20.30
2010,08,14,03,43,20.30
2010,08,14,03,44,20.30
2010,08,14,03,45,20.30
2010,08,14,03,46,20.30
2010,08,14,03,47,20.30
2010,08,14,03,48,20.30
2010,08,14,03,49,20.30
2010,08,14,03,50,20.40
2010,08,14,03,51,20.40
2010,08,14,03,52,20.40
2010,08,14,03,53,20.40
2010,08,14,03,54,20.50
2010,08,14,03,55,20.50
2010,08,14,03,56,20.60
2010,08,14,03,57,20.60
2010,08,14,03,58,20.60
2010,08,14,03,59,20.60
2010,08,14,04,00,20.60
2010,08,14,04,01,20.60
2010,08,14,04,02,20.70
2010,08,14,04,03,20.60
2010,08,14,04,04,20.60
2010,08,14,04,05,20.60
2010,08,14,04,06,20.60
2010,08,14,04,07,20.50
2010,08,14,04,08,20.50
2010,08,14,04,09,20.50
2010,08,14,04,10,20.50
2010,08,14,04,11,20.50
2010,08,14,04,12,20.40
2010,08,14,04,13,20.40
2010,08,14,04,14,20.30
2010,08,14,04,15,20.30
2010,08,14,04,16,20.20
2010,08,14,04,17,20.20
2010,08,14,04,18,20.10
2010,08,14,04,19,20.10
2010,08,14,04,20,20.00
2010,08,14,04,21,19.90
2010,08,14,04,22,19.90
2010,08,14,04,23,19.90
2010,08,14,04,24,19.90
2010,08,14,04,25,19.90
2010,08,14,04,26,19.90
2010,08,14,04,27,19.90
2010,08,14,04,28,19.80
2010,08,14,04,29,19.80
2010,08,14,04,30,19.80
2010,08,14,04,31,19.70
2010,08,14,04,32,19.70
2010,08,14,04,33,19.60
2010,08,14,04,34,19.60
2010,08,14,04,35,19.50
2010,08,14,04,36,19.50
2010,08,14,04,37,19.40
2010,08,14,04,38,19.40
2010,08,14,04,39,19.30
2010,08,14,04,40,19.30
2010,08,14,04,41,19.30
2010,08,14,04,42,19.30
2010,08,14,04,43,19.40
2010,08,14,04,44,19.40
2010,08,14,04,45,19.40
2010,08,14,04,46,19.40
2010,08,14,04,47,19.40
2010,08,14,04,48,19.40
2010,08,14,04,49,19.30
2010,08,14,04,50,19.40
2010,08,14,04,51,19.30
2010,08,14,04,52,19.30
2010,08,14,04,53,19.30
2010,08,14,04,54,19.20
2010,08,14,04,55,19.20
2010,08,14,04,56,19.10
2010,08,14,04,57,19.10
2010,08,14,04,58,19.00
2010,08,14,04,59,19.00
2010,08,14,05,00,19.00
2010,08,14,05,01,18.90
2010,08,14,05,02,18.90
2010,08,14,05,03,18.80
2010,08,14,05,04,18.80
2010,08,14,05,05,18.80
2010,08,14,05,06,18.80
2010,08,14,05,07,18.80
2010,08,14,05,08,18.80
2010,08,14,05,09,18.80
2010,08,14,05,10,18.90
2010,08,14,05,11,18.90
2010,08,14,05,12,18.90
2010,08,14,05,13,18.90
2010,08,14,05,14,18.90
2010,08,14,05,15,18.90
2010,08,14,05,16,18.80
2010,08,14,05,17,18.80
2010,08,14,05,18,18.80
2010,08,14,05,19,18.80
2010,08,14,05,20,18.90
2010,08,14,05,21,18.90
2010,08,14,05,22,18.90
2010,08,14,05,23,18.90
2010,08,14,05,24,18.80
2010,08,14,05,25,18.80
2010,08,14,05,26,18.80
2010,08,14,05,27,18.80
2010,08,14,05,28,18.80
2010,08,14,05,29,18.80
2010,08,14,05,30,18.80
2010,08,14,05,31,18.80
2010,08,14,05,32,18.80
2010,08,14,05,33,18.80
2010,08,14,05,34,18.80
2010,08,14,05,35,18.80
2010,08,14,05,36,18.80
2010,08,14,05,37,18.80
2010,08,14,05,38,18.80
2010,08,14,05,39,18.80
2010,08,14,05,40,18.80
2010,08,14,05,41,18.90
2010,08,14,05,42,18.90
2010,08,14,05,43,18.90
2010,08,14,05,44,19.00
2010,08,14,05,45,19.00
2010,08,14,05,46,19.10
2010,08,14,05,47,19.10
2010,08,14,05,48,19.10
2010,08,14,05,49,19.20
2010,08,14,05,50,19.20
2010,08,14,05,51,19.30
2010,08,14,05,52,19.30
2010,08,14,05,53,19.30
2010,08,14,05,54,19.30
2010,08,14,05,55,19.20
2010,08,14,05,56,19.20
2010,08,14,05,57,19.20
2010,08,14,05,58,19.20
2010,08,14,05,59,19.20
2010,08,14,06,00,19.20
2010,08,14,06,01,19.20
2010,08,14,06,02,19.20
2010,08,14,06,03,19.20
2010,08,14,06,04,19.10
2010,08,14,06,05,19.10
2010,08,14,06,06,19.10
2010,08,14,06,07,19.10
2010,08,14,06,08,19.00
2010,08,14,06,09,19.00
2010,08,14,06,10,18.90
2010,08,14,06,11,18.90
2010,08,14,06,12,18.90
2010,08,14,06,13,18.90
2010,08,14,06,14,18.90
2010,08,14,06,15,18.80
2010,08,14,06,16,18.80
2010,08,14,06,17,18.80
2010,08,14,06,18,18.70
2010,08,14,06,19,18.70
2010,08,14,06,20,18.70
2010,08,14,06,21,18.60
2010,08,14,06,22,18.60
2010,08,14,06,23,18.60
2010,08,14,06,24,18.60
2010,08,14,06,25,18.60
2010,08,14,06,26,18.50
2010,08,14,06,27,18.50
2010,08,14,06,28,18.40
2010,08,14,06,29,18.40
2010,08,14,06,30,18.30
2010,08,14,06,31,18.30
2010,08,14,06,32,18.30
2010,08,14,06,33,18.20
2010,08,14,06,34,18.20
2010,08,14,06,35,18.20
2010,08,14,06,36,18.10
2010,08,14,06,37,18.10
2010,08,14,06,38,18.10
2010,08,14,06,39,18.10
2010,08,14,06,40,18.10
2010,08,14,06,41,18.10
2010,08,14,06,42,18.10
2010,08,14,06,43,18.10
2010,08,14,06,44,18.10
2010,08,14,06,45,18.10
2010,08,14,06,46,18.10
2010,08,14,06,47,18.10
2010,08,14,06,48,18.10
2010,08,14,06,49,18.10
2010,08,14,06,50,18.10
2010,08,14,06,51,18.10
2010,08,14,06,52,18.00
2010,08,14,06,53,18.00
2010,08,14,06,54,18.00
2010,08,14,06,55,18.00
2010,08,14,06,56,18.00
2010,08,14,06,57,18.00
2010,08,14,06,58,18.10
2010,08,14,06,59,18.10
2010,08,14,07,00,18.10
2010,08,14,07,01,18.10
2010,08,14,07,02,18.10
2010,08,14,07,03,18.10
2010,08,14,07,04,18.10
2010,08,14,07,05,18.20
2010,08,14,07,06,18.20
2010,08,14,07,07,18.20
2010,08,14,07,08,18.20
2010,08,14,07,09,18.20
2010,08,14,07,10,18.30
2010,08,14,07,11,18.30
2010,08,14,07,12,18.30
2010,08,14,07,13,18.40
2010,08,14,07,14,18.40
2010,08,14,07,15,18.40
2010,08,14,07,16,18.50
2010,08,14,07,17,18.50
2010,08,14,07,18,18.60
2010,08,14,07,19,18.60
2010,08,14,07,20,18.60
2010,08,14,07,21,18.70
2010,08,14,07,22,18.70
2010,08,14,07,23,18.70
2010,08,14,07,24,18.80
2010,08,14,07,25,18.80
2010,08,14,07,26,18.80
2010,08,14,07,27,18.90
2010,08,14,07,28,18.90
2010,08,14,07,29,19.00
2010,08,14,07,30,19.00
2010,08,14,07,31,19.10
2010,08,14,07,32,19.10
2010,08,14,07,33,19.20
2010,08,14,07,34,19.20
2010,08,14,07,35,19.20
2010,08,14,07,36,19.30
2010,08,14,07,37,19.40
2010,08,14,07,38,19.40
2010,08,14,07,39,19.50
2010,08,14,07,40,19.60
2010,08,14,07,41,19.60
2010,08,14,07,42,19.70
2010,08,14,07,43,19.70
2010,08,14,07,44,19.80
2010,08,14,07,45,19.80
2010,08,14,07,46,19.90
2010,08,14,07,47,20.00
2010,08,14,07,48,20.00
2010,08,14,07,49,20.10
2010,08,14,07,50,20.20
2010,08,14,07,51,20.30
2010,08,14,07,52,20.30
2010,08,14,07,53,20.40
2010,08,14,07,54,20.50
2010,08,14,07,55,20.50
2010,08,14,07,56,20.60
2010,08,14,07,57,20.70
2010,08,14,07,58,20.70
2010,08,14,07,59,20.80
2010,08,14,08,00,20.80
2010,08,14,08,01,20.90
2010,08,14,08,02,20.90
2010,08,14,08,03,21.00
2010,08,14,08,04,21.00
2010,08,14,08,05,21.10
2010,08,14,08,06,21.10
2010,08,14,08,07,21.20
2010,08,14,08,08,21.20
2010,08,14,08,09,21.20
2010,08,14,08,10,21.20
2010,08,14,08,11,21.30
2010,08,14,08,12,21.30
2010,08,14,08,13,21.40
2010,08,14,08,14,21.40
2010,08,14,08,15,21.40
2010,08,14,08,16,21.50
2010,08,14,08,17,21.60
2010,08,14,08,18,21.70
2010,08,14,08,19,21.80
2010,08,14,08,20,21.80
2010,08,14,08,21,21.90
2010,08,14,08,22,22.00
2010,08,14,08,23,22.00
2010,08,14,08,24,22.10
2010,08,14,08,25,22.20
2010,08,14,08,26,22.20
2010,08,14,08,27,22.30
2010,08,14,08,28,22.30
2010,08,14,08,29,22.30
2010,08,14,08,30,22.30
2010,08,14,08,31,22.30
2010,08,14,08,32,22.40
2010,08,14,08,33,22.40
2010,08,14,08,34,22.50
2010,08,14,08,35,22.60
2010,08,14,08,36,22.70
2010,08,14,08,37,22.80
2010,08,14,08,38,22.80
2010,08,14,08,39,23.00
2010,08,14,08,40,23.10
2010,08,14,08,41,23.20
2010,08,14,08,42,23.30
2010,08,14,08,43,23.40
2010,08,14,08,44,23.40
2010,08,14,08,45,23.60
2010,08,14,08,46,23.70
2010,08,14,08,47,23.80
2010,08,14,08,48,23.90
2010,08,14,08,49,24.00
2010,08,14,08,50,24.20
2010,08,14,08,51,24.30
2010,08,14,08,52,24.40
2010,08,14,08,53,24.50
2010,08,14,08,54,24.50
2010,08,14,08,55,24.60
2010,08,14,08,56,24.70
2010,08,14,08,57,24.70
2010,08,14,08,58,24.80
2010,08,14,08,59,24.90
2010,08,14,09,00,25.00
2010,08,14,09,01,25.10
2010,08,14,09,02,25.20
2010,08,14,09,03,25.30
2010,08,14,09,04,25.40
2010,08,14,09,05,25.40
2010,08,14,09,06,25.50
2010,08,14,09,07,25.60
2010,08,14,09,08,25.80
2010,08,14,09,09,25.90
2010,08,14,09,10,26.00
2010,08,14,09,11,26.10
2010,08,14,09,12,26.10
2010,08,14,09,13,26.20
2010,08,14,09,14,26.30
2010,08,14,09,15,26.30
2010,08,14,09,16,26.40
2010,08,14,09,17,26.40
2010,08,14,09,18,26.50
2010,08,14,09,19,26.50
2010,08,14,09,20,26.60
2010,08,14,09,21,26.60
2010,08,14,09,22,26.50
2010,08,14,09,23,26.50
2010,08,14,09,24,26.50
2010,08,14,09,25,26.50
2010,08,14,09,26,26.60
2010,08,14,09,27,26.60
2010,08,14,09,28,26.60
2010,08,14,09,29,26.70
2010,08,14,09,30,26.70
2010,08,14,09,31,26.70
2010,08,14,09,32,26.80
2010,08,14,09,33,26.80
2010,08,14,09,34,26.90
2010,08,14,09,35,27.00
2010,08,14,09,36,27.10
2010,08,14,09,37,27.10
2010,08,14,09,38,27.20
2010,08,14,09,39,27.20
2010,08,14,09,40,27.30
2010,08,14,09,41,27.30
2010,08,14,09,42,27.40
2010,08,14,09,43,27.30
2010,08,14,09,44,27.40
2010,08,14,09,45,27.40
2010,08,14,09,46,27.40
2010,08,14,09,47,27.30
2010,08,14,09,48,27.30
2010,08,14,09,49,27.30
2010,08,14,09,50,27.30
2010,08,14,09,51,27.30
2010,08,14,09,52,27.40
2010,08,14,09,53,27.40
2010,08,14,09,54,27.40
2010,08,14,09,55,27.40
2010,08,14,09,56,27.50
2010,08,14,09,57,27.60
2010,08,14,09,58,27.60
2010,08,14,09,59,27.60
2010,08,14,10,00,27.70
2010,08,14,10,01,27.70
2010,08,14,10,02,27.60
2010,08,14,10,03,27.60
2010,08,14,10,04,27.60
2010,08,14,10,05,27.60
2010,08,14,10,06,27.60
2010,08,14,10,07,27.70
2010,08,14,10,08,27.70
2010,08,14,10,09,27.70
2010,08,14,10,10,27.80
2010,08,14,10,11,27.80
2010,08,14,10,12,27.90
2010,08,14,10,13,27.90
2010,08,14,10,14,27.90
2010,08,14,10,15,27.90
2010,08,14,10,16,27.90
2010,08,14,10,17,27.90
2010,08,14,10,18,27.80
2010,08,14,10,19,27.80
2010,08,14,10,20,27.90
2010,08,14,10,21,27.90
2010,08,14,10,22,28.00
2010,08,14,10,23,28.10
2010,08,14,10,24,28.20
2010,08,14,10,25,28.30
2010,08,14,10,26,28.40
2010,08,14,10,27,28.50
2010,08,14,10,28,28.60
2010,08,14,10,29,28.70
2010,08,14,10,30,28.80
2010,08,14,10,31,28.90
2010,08,14,10,32,29.00
2010,08,14,10,33,29.10
2010,08,14,10,34,29.10
2010,08,14,10,35,29.10
2010,08,14,10,36,29.00
2010,08,14,10,37,29.00
2010,08,14,10,38,29.10
2010,08,14,10,39,29.10
2010,08,14,10,40,29.00
2010,08,14,10,41,29.00
2010,08,14,10,42,29.00
2010,08,14,10,43,29.10
2010,08,14,10,44,29.10
2010,08,14,10,45,29.10
2010,08,14,10,46,29.00
2010,08,14,10,47,29.00
2010,08,14,10,48,28.80
2010,08,14,10,49,28.70
2010,08,14,10,50,28.60
2010,08,14,10,51,28.50
2010,08,14,10,52,28.30
2010,08,14,10,53,28.30
2010,08,14,10,54,28.30
2010,08,14,10,55,28.40
2010,08,14,10,56,28.50
2010,08,14,10,57,28.60
2010,08,14,10,58,28.60
2010,08,14,10,59,28.60
2010,08,14,11,00,28.60
2010,08,14,11,01,28.60
2010,08,14,11,02,28.60
2010,08,14,11,03,28.60
2010,08,14,11,04,28.60
2010,08,14,11,05,28.60
2010,08,14,11,06,28.70
2010,08,14,11,07,28.80
2010,08,14,11,08,28.90
2010,08,14,11,09,29.00
2010,08,14,11,10,29.10
2010,08,14,11,11,29.10
2010,08,14,11,12,29.10
2010,08,14,11,13,29.20
2010,08,14,11,14,29.20
2010,08,14,11,15,29.30
2010,08,14,11,16,29.30
2010,08,14,11,17,29.30
2010,08,14,11,18,29.30
2010,08,14,11,19,29.20
2010,08,14,11,20,29.10
2010,08,14,11,21,28.90
2010,08,14,11,22,28.70
2010,08,14,11,23,28.60
2010,08,14,11,24,28.60
2010,08,14,11,25,28.60
2010,08,14,11,26,28.60
2010,08,14,11,27,28.70
2010,08,14,11,28,28.70
2010,08,14,11,29,28.60
2010,08,14,11,30,28.50
2010,08,14,11,31,28.50
2010,08,14,11,32,28.50
2010,08,14,11,33,28.50
2010,08,14,11,34,28.50
2010,08,14,11,35,28.40
2010,08,14,11,36,28.50
2010,08,14,11,37,28.50
2010,08,14,11,38,28.60
2010,08,14,11,39,28.70
2010,08,14,11,40,28.60
2010,08,14,11,41,28.60
2010,08,14,11,42,28.60
2010,08,14,11,43,28.60
2010,08,14,11,44,28.60
2010,08,14,11,45,28.60
2010,08,14,11,46,28.60
2010,08,14,11,47,28.60
2010,08,14,11,48,28.60
2010,08,14,11,49,28.70
2010,08,14,11,50,28.60
2010,08,14,11,51,28.60
2010,08,14,11,52,28.60
2010,08,14,11,53,28.70
2010,08,14,11,54,28.70
2010,08,14,11,55,28.70
2010,08,14,11,56,28.70
2010,08,14,11,57,28.80
2010,08,14,11,58,28.80
2010,08,14,11,59,28.90
2010,08,14,12,00,29.00
2010,08,14,12,01,29.00
2010,08,14,12,02,29.10
2010,08,14,12,03,29.10
2010,08,14,12,04,29.20
2010,08,14,12,05,29.20
2010,08,14,12,06,29.20
2010,08,14,12,07,29.30
2010,08,14,12,08,29.40
2010,08,14,12,09,29.40
2010,08,14,12,10,29.40
2010,08,14,12,11,29.30
2010,08,14,12,12,29.30
2010,08,14,12,13,29.20
2010,08,14,12,14,29.10
2010,08,14,12,15,29.00
2010,08,14,12,16,29.00
2010,08,14,12,17,29.10
2010,08,14,12,18,29.10
2010,08,14,12,19,29.20
2010,08,14,12,20,29.20
2010,08,14,12,21,29.30
2010,08,14,12,22,29.30
2010,08,14,12,23,29.20
2010,08,14,12,24,29.20
2010,08,14,12,25,29.10
2010,08,14,12,26,29.10
2010,08,14,12,27,29.20
2010,08,14,12,28,29.20
2010,08,14,12,29,29.20
2010,08,14,12,30,29.10
2010,08,14,12,31,29.10
2010,08,14,12,32,29.20
2010,08,14,12,33,29.20
2010,08,14,12,34,29.30
2010,08,14,12,35,29.50
2010,08,14,12,36,29.60
2010,08,14,12,37,29.70
2010,08,14,12,38,29.60
2010,08,14,12,39,29.50
2010,08,14,12,40,29.40
2010,08,14,12,41,29.30
2010,08,14,12,42,29.30
2010,08,14,12,43,29.30
2010,08,14,12,44,29.20
2010,08,14,12,45,29.20
2010,08,14,12,46,29.20
2010,08,14,12,47,29.20
2010,08,14,12,48,29.30
2010,08,14,12,49,29.40
2010,08,14,12,50,29.50
2010,08,14,12,51,29.60
2010,08,14,12,52,29.70
2010,08,14,12,53,29.70
2010,08,14,12,54,29.70
2010,08,14,12,55,29.60
2010,08,14,12,56,29.60
2010,08,14,12,57,29.60
2010,08,14,12,58,29.60
2010,08,14,12,59,29.60
2010,08,14,13,00,29.60
2010,08,14,13,01,29.50
2010,08,14,13,02,29.50
2010,08,14,13,03,29.50
2010,08,14,13,04,29.50
2010,08,14,13,05,29.60
2010,08,14,13,06,29.70
2010,08,14,13,07,29.70
2010,08,14,13,08,29.70
2010,08,14,13,09,29.70
2010,08,14,13,10,29.70
2010,08,14,13,11,29.70
2010,08,14,13,12,29.70
2010,08,14,13,13,29.70
2010,08,14,13,14,29.70
2010,08,14,13,15,29.60
2010,08,14,13,16,29.60
2010,08,14,13,17,29.60
2010,08,14,13,18,29.60
2010,08,14,13,19,29.50
2010,08,14,13,20,29.40
2010,08,14,13,21,29.40
2010,08,14,13,22,29.50
2010,08,14,13,23,29.60
2010,08,14,13,24,29.70
2010,08,14,13,25,29.80
2010,08,14,13,26,29.80
2010,08,14,13,27,29.80
2010,08,14,13,28,29.80
2010,08,14,13,29,29.80
2010,08,14,13,30,29.80
2010,08,14,13,31,29.70
2010,08,14,13,32,29.70
2010,08,14,13,33,29.70
2010,08,14,13,34,29.60
2010,08,14,13,35,29.60
2010,08,14,13,36,29.50
2010,08,14,13,37,29.50
2010,08,14,13,38,29.40
2010,08,14,13,39,29.40
2010,08,14,13,40,29.40
2010,08,14,13,41,29.40
2010,08,14,13,42,29.50
2010,08,14,13,43,29.70
2010,08,14,13,44,29.80
2010,08,14,13,45,30.00
2010,08,14,13,46,30.10
2010,08,14,13,47,30.10
2010,08,14,13,48,30.20
2010,08,14,13,49,30.20
2010,08,14,13,50,30.20
2010,08,14,13,51,30.20
2010,08,14,13,52,30.20
2010,08,14,13,53,30.20
2010,08,14,13,54,30.20
2010,08,14,13,55,30.30
2010,08,14,13,56,30.20
2010,08,14,13,57,30.20
2010,08,14,13,58,30.10
2010,08,14,13,59,30.00
2010,08,14,14,00,30.00
2010,08,14,14,01,29.90
2010,08,14,14,02,29.90
2010,08,14,14,03,29.90
2010,08,14,14,04,29.90
2010,08,14,14,05,30.00
2010,08,14,14,06,30.00
2010,08,14,14,07,30.10
2010,08,14,14,08,30.10
2010,08,14,14,09,30.10
2010,08,14,14,10,30.00
2010,08,14,14,11,30.00
2010,08,14,14,12,30.10
2010,08,14,14,13,30.10
2010,08,14,14,14,30.10
2010,08,14,14,15,30.20
2010,08,14,14,16,30.20
2010,08,14,14,17,30.20
2010,08,14,14,18,30.20
2010,08,14,14,19,30.10
2010,08,14,14,20,30.10
2010,08,14,14,21,30.10
2010,08,14,14,22,30.20
2010,08,14,14,23,30.20
2010,08,14,14,24,30.10
2010,08,14,14,25,30.10
2010,08,14,14,26,30.10
2010,08,14,14,27,30.10
2010,08,14,14,28,30.00
2010,08,14,14,29,30.00
2010,08,14,14,30,30.10
2010,08,14,14,31,30.20
2010,08,14,14,32,30.20
2010,08,14,14,33,30.20
2010,08,14,14,34,30.30
2010,08,14,14,35,30.30
2010,08,14,14,36,30.40
2010,08,14,14,37,30.40
2010,08,14,14,38,30.40
2010,08,14,14,39,30.50
2010,08,14,14,40,30.50
2010,08,14,14,41,30.60
2010,08,14,14,42,30.60
2010,08,14,14,43,30.70
2010,08,14,14,44,30.80
2010,08,14,14,45,30.80
2010,08,14,14,46,30.80
2010,08,14,14,47,30.80
2010,08,14,14,48,30.90
2010,08,14,14,49,30.90
2010,08,14,14,50,30.90
2010,08,14,14,51,30.80
2010,08,14,14,52,30.80
2010,08,14,14,53,30.80
2010,08,14,14,54,30.80
2010,08,14,14,55,30.80
2010,08,14,14,56,30.80
2010,08,14,14,57,30.80
2010,08,14,14,58,30.90
2010,08,14,14,59,31.10
2010,08,14,15,00,31.20
2010,08,14,15,01,31.30
2010,08,14,15,02,31.40
2010,08,14,15,03,31.40
2010,08,14,15,04,31.40
2010,08,14,15,05,31.30
2010,08,14,15,06,31.30
2010,08,14,15,07,31.30
2010,08,14,15,08,31.30
2010,08,14,15,09,31.30
2010,08,14,15,10,31.20
2010,08,14,15,11,31.20
2010,08,14,15,12,31.20
2010,08,14,15,13,31.20
2010,08,14,15,14,31.10
2010,08,14,15,15,31.00
2010,08,14,15,16,31.00
2010,08,14,15,17,31.00
2010,08,14,15,18,31.00
2010,08,14,15,19,31.00
2010,08,14,15,20,31.00
2010,08,14,15,21,31.10
2010,08,14,15,22,31.10
2010,08,14,15,23,31.10
2010,08,14,15,24,31.10
2010,08,14,15,25,31.10
2010,08,14,15,26,31.10
2010,08,14,15,27,31.10
2010,08,14,15,28,31.10
2010,08,14,15,29,31.10
2010,08,14,15,30,31.10
2010,08,14,15,31,31.10
2010,08,14,15,32,31.10
2010,08,14,15,33,31.20
2010,08,14,15,34,31.20
2010,08,14,15,35,31.20
2010,08,14,15,36,31.30
2010,08,14,15,37,31.40
2010,08,14,15,38,31.50
2010,08,14,15,39,31.70
2010,08,14,15,40,31.80
2010,08,14,15,41,32.00
2010,08,14,15,42,32.10
2010,08,14,15,43,32.20
2010,08,14,15,44,32.40
2010,08,14,15,45,32.50
2010,08,14,15,46,32.60
2010,08,14,15,47,32.70
2010,08,14,15,48,32.80
2010,08,14,15,49,32.90
2010,08,14,15,50,32.90
2010,08,14,15,51,33.00
2010,08,14,15,52,33.10
2010,08,14,15,53,33.20
2010,08,14,15,54,33.20
2010,08,14,15,55,33.20
2010,08,14,15,56,33.20
2010,08,14,15,57,33.10
2010,08,14,15,58,32.80
2010,08,14,15,59,32.60
2010,08,14,16,00,32.50
2010,08,14,16,01,32.40
2010,08,14,16,02,32.30
2010,08,14,16,03,32.20
2010,08,14,16,04,32.10
2010,08,14,16,05,31.90
2010,08,14,16,06,31.80
2010,08,14,16,07,31.70
2010,08,14,16,08,31.70
2010,08,14,16,09,31.60
2010,08,14,16,10,31.60
2010,08,14,16,11,31.50
2010,08,14,16,12,31.50
2010,08,14,16,13,31.40
2010,08,14,16,14,31.30
2010,08,14,16,15,31.30
2010,08,14,16,16,31.20
2010,08,14,16,17,31.20
2010,08,14,16,18,31.30
2010,08,14,16,19,31.30
2010,08,14,16,20,31.30
2010,08,14,16,21,31.30
2010,08,14,16,22,31.40
2010,08,14,16,23,31.40
2010,08,14,16,24,31.50
2010,08,14,16,25,31.50
2010,08,14,16,26,31.50
2010,08,14,16,27,31.50
2010,08,14,16,28,31.40
2010,08,14,16,29,31.40
2010,08,14,16,30,31.40
2010,08,14,16,31,31.40
2010,08,14,16,32,31.30
2010,08,14,16,33,31.30
2010,08,14,16,34,31.30
2010,08,14,16,35,31.40
2010,08,14,16,36,31.40
2010,08,14,16,37,31.40
2010,08,14,16,38,31.40
2010,08,14,16,39,31.50
2010,08,14,16,40,31.60
2010,08,14,16,41,31.60
2010,08,14,16,42,31.60
2010,08,14,16,43,31.60
2010,08,14,16,44,31.60
2010,08,14,16,45,31.70
2010,08,14,16,46,31.70
2010,08,14,16,47,31.80
2010,08,14,16,48,31.80
2010,08,14,16,49,31.80
2010,08,14,16,50,31.80
2010,08,14,16,51,31.90
2010,08,14,16,52,32.00
2010,08,14,16,53,32.00
2010,08,14,16,54,32.10
2010,08,14,16,55,32.20
2010,08,14,16,56,32.30
2010,08,14,16,57,32.30
2010,08,14,16,58,32.40
2010,08,14,16,59,32.40
2010,08,14,17,00,32.30
2010,08,14,17,01,32.30
2010,08,14,17,02,32.20
2010,08,14,17,03,32.20
2010,08,14,17,04,32.20
2010,08,14,17,05,32.20
2010,08,14,17,06,32.20
2010,08,14,17,07,32.20
2010,08,14,17,08,32.20
2010,08,14,17,09,32.10
2010,08,14,17,10,32.10
2010,08,14,17,11,32.10
2010,08,14,17,12,32.00
2010,08,14,17,13,31.90
2010,08,14,17,14,31.80
2010,08,14,17,15,31.80
2010,08,14,17,16,31.90
2010,08,14,17,17,31.90
2010,08,14,17,18,31.90
2010,08,14,17,19,31.90